When you browse on this site, cookies collect data to enhance your experience and personalize the content and advertising you see.
Visit our Privacy Policy to learn more. By continuing to use the site, you agree to this use of cookies and data.
  • Em Portugal
  • Lista de países
  • Para 7 dias
  • Temperatura da água
  • Mapa do tempo
  • Widgets de tempo
  • user-avatar
    Iniciar Sessão

    Previsão horária em Belize

    Hoje, 4 Junho, Quinta-feira

    Tempo Temperatura Precipitação Vento Pressão Humidade
    00:00 +28°C° 2.8 mm 9 m/s 752 mmHg 91%
    01:00 +27°C° 1.2 mm 8 m/s 752 mmHg 93%
    02:00 +27°C° 1.2 mm 7 m/s 751 mmHg 95%
    03:00 +27°C° 1.2 mm 7 m/s 751 mmHg 97%
    04:00 +27°C° 1.6 mm 7 m/s 751 mmHg 97%
    05:00 +26°C° 1.6 mm 6 m/s 751 mmHg 97%
    06:00 +26°C° 1.6 mm 6 m/s 751 mmHg 97%
    07:00 +27°C° 1.1 mm 6 m/s 752 mmHg 96%
    08:00 +27°C° 1.1 mm 5 m/s 753 mmHg 96%
    09:00 +28°C° 1.1 mm 4 m/s 753 mmHg 96%
    10:00 +28°C° 0.7 mm 4 m/s 753 mmHg 96%
    11:00 +28°C° 0.7 mm 3 m/s 753 mmHg 95%
    12:00 +28°C° 0.7 mm 2 m/s 753 mmHg 95%
    13:00 +28°C° 0.4 mm 2 m/s 752 mmHg 95%
    14:00 +27°C° 0.4 mm 3 m/s 752 mmHg 96%
    15:00 +27°C° 0.4 mm 3 m/s 752 mmHg 96%
    16:00 +27°C° 1 mm 4 m/s 752 mmHg 96%
    17:00 +27°C° 1 mm 5 m/s 752 mmHg 97%
    18:00 +26°C° 1 mm 5 m/s 752 mmHg 97%
    19:00 +26°C° 1.1 mm 6 m/s 752 mmHg 97%
    20:00 +26°C° 1.1 mm 6 m/s 753 mmHg 98%
    21:00 +26°C° 1.1 mm 6 m/s 753 mmHg 98%
    22:00 +26°C° 2.1 mm 6 m/s 753 mmHg 98%
    23:00 +26°C° 2.1 mm 5 m/s 753 mmHg 99%

    Amanhã, 5 Junho, Sexta-feira

    Tempo Temperatura Precipitação Vento Pressão Humidade
    00:00 +25°C° 2.1 mm 5 m/s 753 mmHg 99%
    01:00 +25°C° 1.9 mm 5 m/s 753 mmHg 99%
    02:00 +25°C° 1.9 mm 5 m/s 752 mmHg 99%
    03:00 +24°C° 1.9 mm 6 m/s 752 mmHg 98%
    04:00 +25°C° 0.9 mm 5 m/s 753 mmHg 98%
    05:00 +25°C° 0.9 mm 5 m/s 753 mmHg 98%
    06:00 +25°C° 0.9 mm 4 m/s 753 mmHg 98%
    07:00 +26°C° 0.8 mm 5 m/s 753 mmHg 96%
    08:00 +27°C° 0.8 mm 6 m/s 754 mmHg 95%
    09:00 +27°C° 0.8 mm 6 m/s 754 mmHg 94%
    10:00 +27°C° 0.7 mm 5 m/s 754 mmHg 95%
    11:00 +27°C° 0.7 mm 4 m/s 754 mmHg 96%
    12:00 +27°C° 0.7 mm 4 m/s 754 mmHg 96%
    13:00 +29°C° 0 mm 4 m/s 753 mmHg 84%
    14:00 +32°C° 0 mm 4 m/s 753 mmHg 71%
    15:00 +35°C° 0 mm 5 m/s 752 mmHg 58%
    16:00 +33°C° 0 mm 5 m/s 752 mmHg 66%
    17:00 +32°C° 0 mm 5 m/s 752 mmHg 75%
    18:00 +29°C° 0 mm 5 m/s 752 mmHg 83%
    19:00 +28°C° 1.4 mm 5 m/s 753 mmHg 88%
    20:00 +27°C° 1.4 mm 5 m/s 754 mmHg 93%
    21:00 +26°C° 1.4 mm 5 m/s 754 mmHg 98%
    22:00 +26°C° 1.5 mm 6 m/s 754 mmHg 98%
    23:00 +26°C° 1.5 mm 6 m/s 755 mmHg 98%

    Depois de amanhã, 6 Junho, Sábado

    Tempo Temperatura Precipitação Vento Pressão Humidade
    00:00 +24°C° 1.5 mm 6 m/s 755 mmHg 99%
    01:00 +25°C° 0.3 mm 5 m/s 755 mmHg 98%
    02:00 +25°C° 0.3 mm 5 m/s 754 mmHg 98%
    03:00 +25°C° 0.3 mm 4 m/s 754 mmHg 98%
    04:00 +25°C° 0 mm 4 m/s 755 mmHg 98%
    05:00 +25°C° 0 mm 3 m/s 755 mmHg 98%
    06:00 +25°C° 0 mm 3 m/s 755 mmHg 97%
    07:00 +27°C° 0 mm 3 m/s 756 mmHg 88%
    08:00 +29°C° 0 mm 2 m/s 756 mmHg 79%
    09:00 +31°C° 0 mm 2 m/s 756 mmHg 70%
    10:00 +34°C° 0 mm 2 m/s 756 mmHg 64%
    11:00 +35°C° 0 mm 2 m/s 756 mmHg 57%
    12:00 +37°C° 0 mm 2 m/s 755 mmHg 51%
    13:00 +35°C° 0.2 mm 3 m/s 755 mmHg 62%
    14:00 +34°C° 0.2 mm 4 m/s 755 mmHg 72%
    15:00 +32°C° 0.2 mm 5 m/s 754 mmHg 83%
    16:00 +30°C° 0 mm 4 m/s 755 mmHg 83%
    17:00 +30°C° 0 mm 4 m/s 755 mmHg 82%
    18:00 +29°C° 0 mm 4 m/s 755 mmHg 81%
    19:00 +28°C° 0.1 mm 3 m/s 755 mmHg 85%
    20:00 +28°C° 0.1 mm 3 m/s 756 mmHg 89%
    21:00 +27°C° 0.1 mm 2 m/s 757 mmHg 93%
    22:00 +27°C° 0 mm 2 m/s 757 mmHg 94%
    23:00 +26°C° 0 mm 1 m/s 756 mmHg 94%

    7 Junho, Domingo

    Tempo Temperatura Precipitação Vento Pressão Humidade
    00:00 +26°C° 0 mm 1 m/s 756 mmHg 95%
    01:00 +26°C° 0 mm 2 m/s 756 mmHg 96%
    02:00 +26°C° 0 mm 2 m/s 756 mmHg 97%
    03:00 +25°C° 0 mm 2 m/s 756 mmHg 98%
    04:00 +25°C° 0 mm 2 m/s 756 mmHg 97%
    05:00 +25°C° 0 mm 2 m/s 756 mmHg 96%
    06:00 +26°C° 0 mm 2 m/s 756 mmHg 96%
    07:00 +28°C° 0 mm 2 m/s 756 mmHg 87%
    08:00 +30°C° 0 mm 2 m/s 757 mmHg 77%
    09:00 +32°C° 0 mm 2 m/s 757 mmHg 68%
    10:00 +35°C° 0 mm 2 m/s 757 mmHg 60%
    11:00 +38°C° 0 mm 2 m/s 756 mmHg 51%
    12:00 +40°C° 0 mm 2 m/s 756 mmHg 43%
    13:00 +39°C° 0 mm 3 m/s 755 mmHg 46%
    14:00 +38°C° 0 mm 3 m/s 755 mmHg 48%
    15:00 +37°C° 0 mm 4 m/s 754 mmHg 51%
    16:00 +35°C° 0 mm 4 m/s 754 mmHg 60%
    17:00 +33°C° 0 mm 4 m/s 755 mmHg 68%
    18:00 +30°C° 0 mm 4 m/s 755 mmHg 77%
    19:00 +29°C° 0 mm 4 m/s 755 mmHg 81%
    20:00 +28°C° 0 mm 4 m/s 756 mmHg 86%
    21:00 +28°C° 0 mm 4 m/s 756 mmHg 91%
    22:00 +27°C° 0 mm 4 m/s 756 mmHg 92%
    23:00 +27°C° 0 mm 5 m/s 756 mmHg 94%

    8 Junho, Segunda-feira

    Tempo Temperatura Precipitação Vento Pressão Humidade
    00:00 +27°C° 0 mm 5 m/s 756 mmHg 96%
    01:00 +27°C° 0 mm 4 m/s 756 mmHg 97%
    02:00 +27°C° 0 mm 3 m/s 756 mmHg 98%
    03:00 +27°C° 0 mm 2 m/s 756 mmHg 99%
    04:00 +27°C° 0.3 mm 2 m/s 756 mmHg 98%
    05:00 +27°C° 0.3 mm 2 m/s 756 mmHg 97%
    06:00 +27°C° 0.3 mm 2 m/s 756 mmHg 96%
    07:00 +29°C° 0.3 mm 2 m/s 757 mmHg 85%
    08:00 +32°C° 0.3 mm 2 m/s 757 mmHg 74%
    09:00 +35°C° 0.3 mm 2 m/s 757 mmHg 62%
    10:00 +36°C° 0 mm 2 m/s 757 mmHg 58%
    11:00 +37°C° 0 mm 2 m/s 757 mmHg 54%
    12:00 +39°C° 0 mm 3 m/s 756 mmHg 50%
    13:00 +38°C° 0 mm 3 m/s 756 mmHg 52%
    14:00 +38°C° 0 mm 4 m/s 755 mmHg 54%
    15:00 +37°C° 0 mm 4 m/s 755 mmHg 56%
    16:00 +35°C° 0 mm 4 m/s 755 mmHg 65%
    17:00 +34°C° 0 mm 4 m/s 755 mmHg 75%
    18:00 +32°C° 0 mm 5 m/s 755 mmHg 85%
    19:00 +30°C° 0 mm 5 m/s 755 mmHg 89%
    20:00 +29°C° 0 mm 6 m/s 756 mmHg 92%
    21:00 +29°C° 0 mm 6 m/s 756 mmHg 96%
    22:00 +29°C° 0 mm 6 m/s 756 mmHg 96%
    23:00 +28°C° 0 mm 6 m/s 756 mmHg 96%

    9 Junho, Terça-feira

    Tempo Temperatura Precipitação Vento Pressão Humidade
    00:00 +28°C° 0 mm 6 m/s 757 mmHg 97%
    01:00 +28°C° 0 mm 5 m/s 756 mmHg 96%
    02:00 +29°C° 0 mm 5 m/s 756 mmHg 96%
    03:00 +29°C° 0 mm 5 m/s 755 mmHg 96%
    04:00 +29°C° 0 mm 5 m/s 756 mmHg 96%
    05:00 +29°C° 0 mm 5 m/s 756 mmHg 96%
    06:00 +29°C° 0 mm 4 m/s 756 mmHg 96%
    07:00 +32°C° 0 mm 4 m/s 756 mmHg 88%
    08:00 +33°C° 0 mm 4 m/s 756 mmHg 79%
    09:00 +35°C° 0 mm 4 m/s 757 mmHg 71%
    10:00 +35°C° 0 mm 4 m/s 757 mmHg 69%
    11:00 +36°C° 0 mm 4 m/s 756 mmHg 67%
    12:00 +36°C° 0 mm 4 m/s 756 mmHg 64%
    13:00 +36°C° 0 mm 5 m/s 756 mmHg 66%
    14:00 +36°C° 0 mm 5 m/s 755 mmHg 67%
    15:00 +36°C° 0 mm 5 m/s 755 mmHg 68%
    16:00 +34°C° 0 mm 5 m/s 755 mmHg 74%
    17:00 +33°C° 0 mm 5 m/s 755 mmHg 80%
    18:00 +30°C° 0 mm 5 m/s 755 mmHg 85%
    19:00 +30°C° 0 mm 6 m/s 756 mmHg 88%
    20:00 +29°C° 0 mm 6 m/s 756 mmHg 91%
    21:00 +28°C° 0 mm 6 m/s 757 mmHg 94%
    22:00 +28°C° 0 mm 6 m/s 757 mmHg 95%
    23:00 +28°C° 0 mm 6 m/s 757 mmHg 95%
    Mostrar mais